sat.trackr.live / text

‹ back to catalog

STARLINK-30287

NORAD 57709 · 2023-129M

PAYLOAD ACTIVE UNKNOWN

§ Identity

Operator
Country
US
Launch date
2023-08-27
Launch site
AFETR
Launch vehicle
Mass (kg)
RCS (m²)

Purposes: comms

External: N2YO · Heavens-Above · Gunter

§ Orbital elements

Epoch: 2026-09-20T22:13:20.875584Z

Period
94.27 min
Inclination
43.0041°
Eccentricity
0.0001601
Mean motion
15.27575865 rev/d
Perigee alt
482.0 km
Apogee alt
484.2 km
Semi-major
6,861.2 km
B*
9.9282e-6
RAAN
95.1267°
Arg perigee
270.3351°
Mean anomaly
89.7317°
Rev number
17,054

§ Raw data

STARLINK-302871 57709U 23129M   26263.92593606  .00000011  00000+0  99282-5 0  99902 57709  43.0041  95.1267 0001601 270.3351  89.7317 15.27575865170544

JSON: /api/v1/satellites/57709 · /tle

For live sub-satellite position, see the globe view (requires WebGL).

§ Visibility from observer

Set your observer location to see the next 7 days of passes ≥ 10°. The values pass through the URL so the page stays shareable.

No JS? Fill the form by hand. The geolocation button needs JavaScript.